Regional Weather Roundup
Issued by NWS Glasgow, MT

Home | Current Version | Previous Version | Text Only | Print | Product List | Glossary On
Versions: 1 2 3 4 5 6 7 8 9 10 11 12 13 14 15 16 17 18 19 20 21 22 23 24 25 26 27
000
ASUS45 KGGW 161515
RWRGGW
HOURLY WEATHER ROUNDUP FOR NORTHEAST MONTANA
NATIONAL WEATHER SERVICE GLASGOW MONTANA
900 AM MDT WED APR 16 2014

NOTE: "FAIR" INDICATES FEW OR NO CLOUDS BELOW 12,000 FEET WITH NO
SIGNIFICANT WEATHER AND/OR OBSTRUCTIONS TO VISISBILITY.

NORTHEAST MONTANA


CITY           SKY/WX    TMP DP  RH WIND       PRES   REMARKS
GLASGOW        CLOUDY    29  22  75 NE9       30.05R
PLENTYWOOD       N/A     25  21  85 E13         N/A
WOLF POINT     CLOUDY    30  20  66 NE12      30.07R
JORDAN           N/A     28  21  75 NE7       30.02R
WINNETT          N/A     32  28  85 N3          N/A
SIDNEY         CLOUDY    28  21  74 E10       30.06R
GLENDIVE       CLOUDY    28  19  69 NE10      30.02R

FORT PECK REPORTS


CITY           SKY/WX    TMP DP  RH WIND       PRES   REMARKS
FORT PECK        N/A     29  23  78 NE6         N/A
THE PINES        N/A     29  23  78 E3          N/A

SOUTHEAST MONTANA


CITY           SKY/WX    TMP DP  RH WIND       PRES   REMARKS
BILLINGS       PTSUNNY   40  30  67 VRB3      29.97R
MILES CITY     MOSUNNY   33  21  61 N7        29.99R
BAKER          MOSUNNY   29  19  66 E9        29.96R
LIVINGSTON     PTSUNNY   41  25  53 SW18      29.96R

CENTRAL MONTANA


CITY           SKY/WX    TMP DP  RH WIND       PRES   REMARKS
HAVRE          CLOUDY    33  27  78 E3        30.02R
LEWISTOWN      CLOUDY    30  28  92 N3        29.97R
GREAT FALLS    CLOUDY    34  31  88 N3        29.96R
CUT BANK       LGT SNOW  31  29  92 N3        29.97R FOG
HELENA         MOSUNNY   43  24  47 SW6       29.97S
BUTTE          PTSUNNY   33  20  58 NE3       29.98S
BOZEMAN        PTSUNNY   39  24  55 CALM      29.99R

WESTERN MONTANA


CITY           SKY/WX    TMP DP  RH WIND       PRES   REMARKS
MISSOULA       CLOUDY    32  31  96 CALM      30.03S
KALISPELL      NOT AVBL

NORTH DAKOTA


CITY           SKY/WX    TMP DP  RH WIND       PRES   REMARKS
WILLISTON      CLOUDY    26  21  81 E14       30.08R
DICKINSON      CLOUDY    26  20  77 NE12      29.96R
MINOT          CLOUDY    23  18  81 NE13      30.10R
BISMARCK       CLOUDY    28  23  81 E17       30.01R

SOUTHERN SASKATCHEWAN


CITY           SKY/WX    TMP DP  RH WIND       PRES   REMARKS
REGINA         LGT SNOW  23  18  80 E16       30.18R DRFTSNOW
MOOSE JAW      LGT SNOW  25  16  68 E15       30.16R DRFTSNOW
ESTEVAN        LGT SNOW  21  18  86 E17       30.15R DRFTSNOW
SWIFT CURRENT  LGT SNOW  25  23  93 E13       30.05R




USA.gov is the U.S. government's official web portal to all federal, state and local government web resources and services.